[Iaude] MPEC C184: 2024 CV5 [a=1.42,e=0.25,i=11.6,H=25.3]

mpec at cfa.harvard.edu mpec at cfa.harvard.edu
Thu Feb 15 08:59:38 EST 2024


M.P.E.C. 2024-C184                            Issued 2024 February 15, 13:57 UT

     The Minor Planet Electronic Circulars contain information on unusual
         minor planets, routine data on comets and natural satellites,
         and occasional editorial announcements.  They are published
    on behalf of Division F of the International Astronomical Union by the
          Minor Planet Center, Smithsonian Astrophysical Observatory,
                          Cambridge, MA 02138, U.S.A.
			  
             Prepared using the Tamkin Foundation Computer Network

                              MPC at CFA.HARVARD.EDU
            URL https://www.minorplanetcenter.net/    ISSN 1523-6714

                                    2024 CV5                                    


Observations:
     K24C05V* C2024 02 13.51931609 43 23.888+41 55 27.57         21.16wXEC184F52
     K24C05V  C2024 02 13.53045009 43 22.270+41 53 59.61         21.44wXEC184F52
     K24C05V  C2024 02 13.55269709 43 19.170+41 51 03.48         21.49wXEC184F52
     K24C05V  C2024 02 13.61028209 43 11.554+41 43 22.39         22.22GVEC184F52
     K24C05V KC2024 02 14.12575209 42 31.595+40 36 16.80         21.1 GVEC184H01
     K24C05V KC2024 02 14.14267909 42 29.602+40 34 08.86         21.4 GVEC184H01
     K24C05V KC2024 02 14.15463809 42 28.146+40 32 38.36         21.2 GVEC184H01
     K24C05V KC2024 02 14.16483709 42 26.876+40 31 21.07         21.2 GVEC184H01
     K24C05V  C2024 02 14.44429709 41 54.281+39 55 26.31         21.31GVEC184F52
     K24C05V  C2024 02 14.44511709 41 54.178+39 55 20.14         21.31GVEC184F52
     K24C05V KC2024 02 14.97825509 41 02.91 +38 44 34.4          21.5 GVEC184L01
     K24C05V KC2024 02 14.97994009 41 02.68 +38 44 20.9          21.6 GVEC184L01
     K24C05V KC2024 02 14.98183809 41 02.46 +38 44 06.5          21.6 GVEC184L01
     K24C05V KC2024 02 14.98352509 41 02.23 +38 43 53.5          21.2 GVEC184L01

Observer details:
F52 Pan-STARRS 2, Haleakala.  Observers J. Herman, T. Lowe, P. Minguez, A.
    Schultz, I. Smith.  Measurers K. Chambers, T. de Boer, J. Fairlamb, H.
    Gao, M. Huber, C.-C. Lin, E. Magnier, Y. Ramanjooloo, R. Wainscoat, R.
    Weryk.  1.8-m Ritchey-Chretien + CCD.
H01 Magdalena Ridge Observatory, Socorro.  Observers W. H. Ryan, E. V. Ryan.
    Measurer W. H. Ryan.  2.4-m f/8.9 Ritchey-Chretien + CCD.
L01 Visnjan Observatory, Tican.  Observer K. Korlevic.  1.0-m f/2.9 reflector
    + CCD.

Orbital elements:
2024 CV5                                                 Earth MOID = 0.0988 AU
Epoch 2024 Mar. 31.0 TT = JDT 2460400.5                 MPC                     
M  36.39888              (2000.0)            P               Q                  
n   0.57991593     Peri.  151.83939     -0.60162653     -0.79418910             
a   1.4241619      Node   334.85351     +0.68989800     -0.46268975             
e   0.2495486      Incl.   11.60674     +0.40259938     -0.39393131             
P   1.70           H   25.31          G   0.15           U   8                  
Residuals in seconds of arc
240213 F52  0.2+  0.6+    240214 H01  0.1+  0.1+    240214 L01  0.0   0.3-
240213 F52  0.1-  0.5+    240214 H01  0.1+  0.1+    240214 L01  0.1-  0.4-
240213 F52  0.2+  0.6+    240214 H01  0.0   0.2+    240214 L01  0.1+  0.2+
240213 F52  0.1-  0.4-    240214 F52  0.1-  0.2-    240214 L01  0.1-  0.7+
240214 H01  0.1-  0.2+    240214 F52  0.1+  0.1+

Ephemeris:
2024 CV5                 a,e,i = 1.42, 0.25, 12                  q = 1.0688
Date    TT    R. A. (2000) Decl.     Delta      r    Elong.  Phase     V
2024 01 16    10 54 04.0 +76 34 31   0.1614  1.0734   120.0    52.5    23.4
...
2024 01 31    10 14 55.7 +64 48 42   0.1222  1.0689   130.8    44.3    22.6
...
2024 02 08    09 54 26.7 +52 51 50   0.1068  1.0724   142.0    34.5    22.0
...
2024 02 14    09 42 38.5 +40 53 00   0.1007  1.0777   152.5    25.1    21.6
2024 02 15    09 41 01.4 +38 41 59   0.1003  1.0788   154.2    23.4    21.6
2024 02 16    09 39 30.3 +36 29 00   0.1001  1.0800   156.0    21.9    21.5
...
2024 02 22    09 32 23.9 +23 03 58   0.1031  1.0881   163.4    15.0    21.4
...
2024 03 01    09 27 36.5 +07 21 18   0.1177  1.1022   160.0    17.9    21.8
...
2024 03 16    09 29 58.9 -10 30 52   0.1695  1.1371   144.5    30.5    23.0

A. U. Tomatic                (C) Copyright 2024 MPC           M.P.E.C. 2024-C184





More information about the Iaude mailing list